DL7MAP-13 Weather Reports


Display with metric or nautical units.
time (UTC)temp
F
wind
direction
speed
MPH
gust
MPH
rain 1hr
in
rain 24hr
in
rain mn
in
humidity
%
barometer
mb
20260903133216 74 0.0 0.0 0.00 0.00 0.00 56 1008.7
20260903131716 74 0.0 0.0 0.00 0.00 0.00 56 1009.2
20260903130215 73 0.0 0.0 0.00 0.00 0.00 56 1008.7
20260903124715 73 0.0 0.0 0.00 0.00 0.00 57 1009.3
20260903123215 72 0.0 0.0 0.00 0.00 0.00 58 1009.6
20260903121715 72 0.0 0.0 0.00 0.00 0.00 58 1009.6
20260903120216 72 0.0 0.0 0.00 0.00 0.00 59 1009.6
20260903114715 71 0.0 0.0 0.00 0.00 0.00 59 1009.6
20260903113215 70 0.0 0.0 0.00 0.00 0.00 59 1010.3
20260903111715 70 0.0 0.0 0.00 0.00 0.00 59 1010.4
20260903110215 70 0.0 0.0 0.00 0.00 0.00 60 1010.1
20260903104715 69 0.0 0.0 0.00 0.00 0.00 61 1010.1
20260903103216 69 0.0 0.0 0.00 0.00 0.00 61 1010.3
20260903101715 69 0.0 0.0 0.00 0.00 0.00 62 1010.5
20260903100216 69 0.0 0.0 0.00 0.00 0.00 62 1011.2
20260903094715 69 0.0 0.0 0.00 0.00 0.00 64 1010.9
20260903093215 68 0.0 0.0 0.00 0.00 0.00 66 1011.4
20260903091716 67 0.0 0.0 0.00 0.00 0.00 68 1011.9
20260903090216 67 0.0 0.0 0.00 0.00 0.00 69 1011.9
20260903084715 66 0.0 0.0 0.00 0.00 0.00 70 1011.8
20260903083215 65 0.0 0.0 0.00 0.00 0.00 71 1012.0
20260903081715 65 0.0 0.0 0.00 0.00 0.00 72 1012.4
20260903080215 65 0.0 0.0 0.00 0.00 0.00 72 1012.5
20260903074715 64 0.0 0.0 0.00 0.00 0.00 73 1011.9
20260903073215 63 0.0 0.0 0.00 0.00 0.00 74 1012.8
20260903071715 62 0.0 0.0 0.00 0.00 0.00 76 1012.2
20260903070215 61 0.0 0.0 0.00 0.00 0.00 79 1012.8
20260903064715 60 0.0 0.0 0.00 0.00 0.00 80 1012.5
20260903063215 60 0.0 0.0 0.00 0.00 0.00 81 1012.7
20260903061715 59 0.0 0.0 0.00 0.00 0.00 81 1012.3
20260903060215 59 0.0 0.0 0.00 0.00 0.00 82 1013.0
20260903054715 59 0.0 0.0 0.00 0.00 0.00 82 1013.2
20260903053215 58 0.0 0.0 0.00 0.00 0.00 82 1012.8
20260903051716 58 0.0 0.0 0.00 0.00 0.00 83 1012.8
20260903050216 58 0.0 0.0 0.00 0.00 0.00 83 1012.9
20260903044715 58 0.0 0.0 0.00 0.00 0.00 83 1012.6
20260903043216 58 0.0 0.0 0.00 0.00 0.00 83 1012.5
20260903041715 58 0.0 0.0 0.00 0.00 0.00 83 1012.8
20260903040215 58 0.0 0.0 0.00 0.00 0.00 83 1012.4
20260903034715 58 0.0 0.0 0.00 0.00 0.00 83 1012.6
20260903033215 59 0.0 0.0 0.00 0.00 0.00 81 1012.9
20260903031715 59 0.0 0.0 0.00 0.00 0.00 80 1012.5
20260903030215 59 0.0 0.0 0.00 0.00 0.00 80 1013.1
20260903024715 59 0.0 0.0 0.00 0.00 0.00 79 1012.9
20260903023215 60 0.0 0.0 0.00 0.00 0.00 79 1012.8
20260903021715 60 0.0 0.0 0.00 0.00 0.00 80 1013.0
20260903020215 60 0.0 0.0 0.00 0.00 0.00 80 1012.9
20260903014716 60 0.0 0.0 0.00 0.00 0.00 79 1013.4
20260903013215 60 0.0 0.0 0.00 0.00 0.00 79 1013.1
20260903011715 60 0.0 0.0 0.00 0.00 0.00 79 1012.9
20260903010216 60 0.0 0.0 0.00 0.00 0.00 80 1013.0
20260903004715 60 0.0 0.0 0.00 0.00 0.00 80 1013.2
20260903003216 60 0.0 0.0 0.00 0.00 0.00 80 1013.0
20260903001715 60 0.0 0.0 0.00 0.00 0.00 80 1013.3
20260903000215 60 0.0 0.0 0.00 0.00 0.00 80 1013.2
20260902234715 60 0.0 0.0 0.00 0.00 0.00 80 1013.3
20260902233215 60 0.0 0.0 0.00 0.00 0.00 81 1012.8
20260902231715 60 0.0 0.0 0.00 0.00 0.00 81 1013.2
20260902230216 60 0.0 0.0 0.00 0.00 0.00 80 1013.1
20260902224715 60 0.0 0.0 0.00 0.00 0.00 79 1013.3
20260902223215 60 0.0 0.0 0.00 0.00 0.00 79 1013.4
20260902221715 61 0.0 0.0 0.00 0.00 0.00 78 1013.4
20260902220215 61 0.0 0.0 0.00 0.00 0.00 78 1013.6
20260902214715 61 0.0 0.0 0.00 0.00 0.00 78 1013.0
20260902213215 62 0.0 0.0 0.00 0.00 0.00 78 1013.3
20260902211715 62 0.0 0.0 0.00 0.00 0.00 78 1013.3
20260902210215 62 0.0 0.0 0.00 0.00 0.00 78 1013.2
20260902204715 62 0.0 0.0 0.00 0.00 0.00 79 1012.9
20260902203215 61 0.0 0.0 0.00 0.00 0.00 80 1013.3
20260902201721 61 0.0 0.0 0.00 0.00 0.00 82 1013.2
20260902200215 61 0.0 0.0 0.00 0.00 0.00 82 1013.0
20260902194715 60 0.0 0.0 0.00 0.00 0.00 82 1013.0
20260902193215 61 0.0 0.0 0.00 0.00 0.00 81 1013.1
20260902191715 62 0.0 0.0 0.00 0.00 0.00 79 1013.3
20260902190215 62 0.0 0.0 0.00 0.00 0.00 78 1013.3
20260902184715 63 0.0 0.0 0.00 0.00 0.00 77 1013.2
20260902183216 63 0.0 0.0 0.00 0.00 0.00 76 1012.8
20260902181715 64 0.0 0.0 0.00 0.00 0.00 73 1012.9
20260902180215 65 0.0 0.0 0.00 0.00 0.00 71 1012.8
20260902174715 67 0.0 0.0 0.00 0.00 0.00 68 1012.6
20260902173215 68 0.0 0.0 0.00 0.00 0.00 65 1012.7
20260902171716 70 0.0 0.0 0.00 0.00 0.00 61 1013.4
20260902170215 71 0.0 0.0 0.00 0.00 0.00 58 1013.3
20260902164715 71 0.0 0.0 0.00 0.00 0.00 55 1012.9
20260902163248 71 0.0 0.0 0.00 0.00 0.00 55
20260902162339 71 0.0 0.0 0.00 0.00 0.00 55 1013.1
20260902160905 71 0.0 0.0 0.00 0.00 0.00 55 1013.3
20260902155814 71 0.0 0.0 0.00 0.00 0.00 55 1012.5
20260902155224 71 0.0 0.0 0.00 0.00 0.00 55 1012.5
20260902153724 72 0.0 0.0 0.00 0.00 0.00 54 1012.2
20260902152224 73 0.0 0.0 0.00 0.00 0.00 52 1012.4
20260902150724 73 0.0 0.0 0.00 0.00 0.00 51 1013.5
20260902145224 72 0.0 0.0 0.00 0.00 0.00 52 1013.0
20260902143724 74 0.0 0.0 0.00 0.00 0.00 51 1013.5
20260902142224 72 0.0 0.0 0.00 0.00 0.00 54 1013.8
20260902140725 72 0.0 0.0 0.00 0.00 0.00 53 1013.0
20260902135224 72 0.0 0.0 0.00 0.00 0.00 52 1014.2